Location: Cartignies
(50.0929°N, 3.8447°E)
Time: 13:36:04
(UTC+00:00)

USA 238 - Pass Details

Date: 12 January 2026
Orbit: 883 x 1328 km, 63.4° (Epoch: 10 January)

Event Time Altitude Azimuth Distance (km) Brightness Sun altitude
Rises 18:37:16 0° 316° (NW) 3,953 7.2 -23.3°
Reaches altitude 10° 18:39:52 10° 313° (NW) 3,052 6.6 -23.8°
Maximum altitude 18:47:09 65° 235° (SW) 1,349 4.3 -24.9°
Drops below altitude 10° 18:55:05 10° 156° (SSE) 3,307 6.0 -26.2°
Enters shadow 18:56:25 - 154° (SSE) 3,760 6.3 -26.4°
